Regional Weather Roundup
Issued by NWS Goodland, KS

Home | Current Version | Previous Version | Graphics & Text | Print | Product List | Glossary On
Versions: 1 2 3 4 5 6 7 8 9 10 11 12 13 14 15 16 17 18 19 20 21 22 23 24 25 26 27 28 29 30 31 32 33 34 35 36 37 38 39 40 41 42 43 44 45 46 47 48 49 50
000
ASUS43 KGLD 291708
RWRGLD

GOODLAND FORECAST AREA HOURLY WEATHER ROUNDUP
NATIONAL WEATHER SERVICE GOODLAND KS
1100 AM MDT FRI AUG 29 2014

...OFFICIAL OBSERVATIONS...

CITY           SKY/WX    TMP DP  RH WIND       PRES   REMARKS
GOODLAND KS    SUNNY     79  52  38 NW13      29.99F
HILL CITY KS   SUNNY     77  59  53 NW8       29.91S
IMPERIAL NEB   SUNNY     77  56  48 NW9       29.96S
MCCOOK NEB     SUNNY     78  56  46 W7        29.92S
AKRON CO       SUNNY     73  53  49 W7        30.07R
BURLINGTON CO  SUNNY     79  48  33 NW14      30.03S
LIMON CO       SUNNY     76  45  33 N15G25    30.12S
$$

...UNOFFICIAL OBSERVATIONS...

CITY           SKY/WX    TMP DP  RH WIND       PRES   REMARKS
COLBY KS       SUNNY     79  59  50 NW8       29.97S
GOVE KS          N/A     78  32  18 CALM        N/A
NORTON KS      SUNNY     79  52  38 W8        29.89S
SHARON SPRINGS   N/A     79  55  43 NW9G20      N/A
WAKEENEY KS      N/A     77  54  44 MISG        N/A
KIT CARSON CO    N/A     81  47  29 N8G18       N/A
YUMA CO          N/A     79  56  44 W12         N/A
$$


USA.gov is the U.S. government's official web portal to all federal, state and local government web resources and services.